| time (UTC) | temp F | wind direction | speed knots | gust knots | rain 1hr in | rain 24hr in | rain mn in | humidity % | barometer mb |
| 20260504030015 | 0 | 227 | 0.0 | 0.0 | 0.00 | 0.00 | 0.00 | 1012.7 | |
| 20260504024507 | 0 | 227 | 0.0 | 0.0 | 0.00 | 0.00 | 0.00 | 1013.0 | |
| 20260504023007 | 0 | 227 | 0.0 | 0.0 | 0.00 | 0.00 | 0.00 | 1013.0 | |
| 20260504021600 | 0 | 227 | 0.0 | 0.0 | 0.00 | 0.00 | 0.00 | 1012.9 | |
| 20260504020105 | 0 | 227 | 0.0 | 0.0 | 0.00 | 0.00 | 0.00 | 1013.0 | |
| 20260504014551 | 0 | 227 | 0.0 | 0.0 | 0.00 | 0.00 | 0.00 | 1012.9 | |
| 20260504013051 | 0 | 227 | 0.0 | 0.0 | 0.00 | 0.00 | 0.00 | 1012.8 | |
| 20260504011541 | 0 | 227 | 0.0 | 0.0 | 0.00 | 0.00 | 0.00 | 1012.6 | |
| 20260504010045 | 0 | 227 | 0.0 | 0.0 | 0.00 | 0.00 | 0.00 | 1012.7 | |
| 20260504004541 | 0 | 227 | 0.0 | 0.0 | 0.00 | 0.00 | 0.00 | 1012.7 | |
| 20260504003030 | 0 | 227 | 0.0 | 0.0 | 0.00 | 0.00 | 0.00 | 1012.6 | |
| 20260504001532 | 0 | 227 | 0.0 | 3.5 | 0.00 | 0.00 | 0.00 | 1012.6 | |
| 20260504000020 | 0 | 281 | 0.9 | 4.3 | 0.00 | 0.00 | 0.00 | 1012.5 | |
| 20260503234518 | 0 | 252 | 0.0 | 4.3 | 0.00 | 0.00 | 0.00 | 1012.5 | |
| 20260503233012 | 0 | 247 | 0.9 | 3.5 | 0.00 | 0.00 | 0.00 | 1012.5 | |
| 20260503231507 | 0 | 306 | 1.7 | 7.0 | 0.00 | 0.00 | 0.00 | 1012.5 | |
| 20260503230002 | 0 | 297 | 0.9 | 11.3 | 0.00 | 0.00 | 0.00 | 1012.5 | |
| 20260503224602 | 0 | 248 | 3.5 | 9.6 | 0.00 | 0.00 | 0.00 | 1012.6 | |
| 20260503223109 | 0 | 206 | 1.7 | 9.6 | 0.00 | 0.00 | 0.00 | 1012.7 | |
| 20260503221553 | 0 | 95 | 3.5 | 10.4 | 0.00 | 0.00 | 0.00 | 1012.6 | |
| 20260503220047 | 0 | 261 | 1.7 | 7.8 | 0.00 | 0.00 | 0.00 | 1012.7 | |
| 20260503214552 | 0 | 28 | 0.9 | 7.0 | 0.00 | 0.00 | 0.00 | 1012.6 | |
| 20260503213036 | 0 | 74 | 2.6 | 7.8 | 0.00 | 0.00 | 0.00 | 1012.4 | |
| 20260503211532 | 0 | 284 | 2.6 | 7.0 | 0.00 | 0.00 | 0.00 | 1012.5 | |
| 20260503210027 | 0 | 348 | 1.7 | 7.8 | 0.00 | 0.00 | 0.00 | 1012.7 | |
| 20260503204528 | 0 | 271 | 3.5 | 9.6 | 0.00 | 0.00 | 0.00 | 1012.8 | |
| 20260503203019 | 0 | 273 | 4.3 | 13.0 | 0.00 | 0.00 | 0.00 | 1012.9 | |
| 20260503201515 | 0 | 214 | 2.6 | 10.4 | 0.00 | 0.00 | 0.00 | 1013.1 | |
| 20260503200010 | 0 | 237 | 1.7 | 7.0 | 0.00 | 0.00 | 0.00 | 1013.3 | |
| 20260503194506 | 0 | 306 | 3.5 | 9.6 | 0.00 | 0.00 | 0.00 | 1013.5 | |
| 20260503193000 | 0 | 234 | 3.5 | 7.8 | 0.00 | 0.00 | 0.00 | 1013.7 | |
| 20260503191604 | 0 | 188 | 1.7 | 8.7 | 0.00 | 0.00 | 0.00 | 1014.0 | |
| 20260503190052 | 0 | 277 | 4.3 | 8.7 | 0.00 | 0.00 | 0.00 | 1014.1 | |
| 20260503184548 | 0 | 286 | 2.6 | 9.6 | 0.00 | 0.00 | 0.00 | 1014.3 | |
| 20260503183052 | 0 | 17 | 1.7 | 10.4 | 0.00 | 0.00 | 0.00 | 1014.4 | |
| 20260503181556 | 0 | 168 | 1.7 | 9.6 | 0.00 | 0.00 | 0.00 | 1014.7 | |
| 20260503180045 | 0 | 274 | 2.6 | 8.7 | 0.00 | 0.00 | 0.00 | 1014.9 | |
| 20260503174530 | 0 | 324 | 4.3 | 8.7 | 0.00 | 0.00 | 0.00 | 1015.0 | |
| 20260503173026 | 0 | 330 | 3.5 | 11.3 | 0.00 | 0.00 | 0.00 | 1015.2 | |
| 20260503171525 | 0 | 144 | 1.7 | 7.8 | 0.00 | 0.00 | 0.00 | 1015.2 | |
| 20260503081545 | 0 | 296 | 0.0 | 0.0 | 0.00 | 0.01 | 0.00 | 1015.3 | |
| 20260503071527 | 0 | 296 | 0.0 | 0.0 | 0.00 | 0.01 | 0.00 | 1015.1 | |
| 20260503054501 | 0 | 296 | 0.0 | 0.0 | 0.00 | 0.01 | 0.00 | 1015.3 | |
| 20260503053057 | 0 | 296 | 0.0 | 0.0 | 0.00 | 0.01 | 0.00 | 1015.3 | |
| 20260503051553 | 0 | 296 | 0.0 | 0.0 | 0.00 | 0.01 | 0.00 | 1015.4 | |
| 20260503050048 | 0 | 296 | 0.0 | 0.0 | 0.00 | 0.01 | 0.00 | 1015.5 | |
| 20260503044600 | 0 | 296 | 0.0 | 0.0 | 0.00 | 0.01 | 0.00 | 1015.5 | |
| 20260503043041 | 0 | 296 | 0.0 | 0.0 | 0.00 | 0.01 | 0.00 | 1015.6 | |
| 20260503041537 | 0 | 296 | 0.0 | 0.0 | 0.00 | 0.01 | 0.00 | 1015.6 | |
| 20260503040035 | 0 | 296 | 0.0 | 0.0 | 0.00 | 0.01 | 0.00 | 1015.6 | |
| 20260503034526 | 0 | 296 | 0.0 | 0.0 | 0.00 | 0.01 | 0.01 | 1015.6 | |
| 20260503033022 | 0 | 296 | 0.0 | 0.0 | 0.00 | 0.01 | 0.01 | 1015.6 | |
| 20260503031517 | 0 | 296 | 0.0 | 0.0 | 0.00 | 0.01 | 0.01 | 1015.6 |